TimeCET,TemperatureF,Dew PointF,Humidity,Sea Level PressureIn,VisibilityMPH,Wind Direction,Wind SpeedMPH,Gust SpeedMPH,PrecipitationIn,Events,Conditions,WindDirDegrees,DateUTC
12:00 AM,50.0,46.4,87,30.12,6.2,Calm,Calm,-,N/A,,Mostly Cloudy,0,2012-11-24 23:00:00
5:30 AM,50.0,48.2,94,30.09,6.2,Variable,1.2,-,N/A,,Light Drizzle,0,2012-11-25 04:30:00
6:00 AM,50.0,48.2,94,30.09,6.2,Variable,1.2,-,N/A,,Light Drizzle,0,2012-11-25 05:00:00
6:30 AM,50.0,48.2,94,30.09,6.2,NNW,2.3,-,N/A,,Light Drizzle,330,2012-11-25 05:30:00
7:00 AM,50.0,48.2,94,30.09,6.2,West,1.2,-,N/A,,Overcast,280,2012-11-25 06:00:00
7:30 AM,50.0,48.2,94,30.09,6.2,WNW,2.3,-,N/A,,Overcast,300,2012-11-25 06:30:00
8:00 AM,50.0,48.2,94,30.09,6.2,Variable,2.3,-,N/A,,Overcast,0,2012-11-25 07:00:00
8:30 AM,50.0,48.2,94,30.09,6.2,West,2.3,-,N/A,,Overcast,280,2012-11-25 07:30:00
9:00 AM,50.0,48.2,94,30.09,6.2,Variable,1.2,-,N/A,,Overcast,0,2012-11-25 08:00:00
9:30 AM,50.0,48.2,94,30.09,6.2,West,2.3,-,N/A,,Overcast,280,2012-11-25 08:30:00
10:00 AM,51.8,48.2,88,30.12,6.2,Variable,2.3,-,N/A,,Overcast,0,2012-11-25 09:00:00
10:30 AM,50.0,48.2,94,30.12,6.2,West,2.3,-,N/A,Rain,Rain,270,2012-11-25 09:30:00
11:00 AM,51.8,50.0,94,30.12,6.2,Calm,Calm,-,N/A,Rain,Rain,0,2012-11-25 10:00:00
11:30 AM,51.8,50.0,94,30.12,6.2,Calm,Calm,-,N/A,,Overcast,0,2012-11-25 10:30:00
12:00 PM,51.8,50.0,94,30.09,6.2,SE,4.6,-,N/A,,Overcast,130,2012-11-25 11:00:00
12:30 PM,51.8,50.0,94,30.09,6.2,Variable,1.2,-,N/A,,Overcast,0,2012-11-25 11:30:00
1:00 PM,53.6,50.0,88,30.06,6.2,Variable,1.2,-,N/A,,Overcast,0,2012-11-25 12:00:00
1:30 PM,53.6,51.8,94,30.04,6.2,Calm,Calm,-,N/A,,Overcast,0,2012-11-25 12:30:00
2:00 PM,55.4,50.0,82,30.04,6.2,Variable,1.2,-,N/A,,Overcast,0,2012-11-25 13:00:00
2:30 PM,55.4,50.0,82,30.04,6.2,Calm,Calm,-,N/A,,Overcast,0,2012-11-25 13:30:00
3:00 PM,57.2,50.0,77,30.01,6.2,Variable,1.2,-,N/A,,Mostly Cloudy,0,2012-11-25 14:00:00
3:30 PM,57.2,50.0,77,30.01,6.2,Calm,Calm,-,N/A,,Mostly Cloudy,0,2012-11-25 14:30:00
4:00 PM,57.2,50.0,77,30.01,6.2,Calm,Calm,-,N/A,,Mostly Cloudy,0,2012-11-25 15:00:00
4:30 PM,57.2,51.8,82,30.01,6.2,Variable,1.2,-,N/A,,Overcast,0,2012-11-25 15:30:00
5:00 PM,55.4,51.8,88,30.01,6.2,NW,2.3,-,N/A,,Overcast,320,2012-11-25 16:00:00
7:00 PM,55.4,50.0,82,29.98,6.2,Calm,Calm,-,N/A,,Overcast,0,2012-11-25 18:00:00
7:30 PM,55.4,50.0,82,29.98,6.2,Calm,Calm,-,N/A,,Overcast,0,2012-11-25 18:30:00
8:00 PM,55.4,51.8,88,29.98,6.2,NNW,3.5,-,N/A,,Mostly Cloudy,330,2012-11-25 19:00:00
8:30 PM,55.4,50.0,82,29.98,6.2,Variable,1.2,-,N/A,,Mostly Cloudy,0,2012-11-25 19:30:00
9:00 PM,53.6,50.0,88,29.98,6.2,Variable,2.3,-,N/A,,Mostly Cloudy,0,2012-11-25 20:00:00
9:30 PM,53.6,50.0,88,29.98,6.2,Calm,Calm,-,N/A,,Mostly Cloudy,0,2012-11-25 20:30:00
10:00 PM,53.6,50.0,88,29.95,6.2,Calm,Calm,-,N/A,,Mostly Cloudy,0,2012-11-25 21:00:00
10:30 PM,53.6,50.0,88,29.95,6.2,Variable,1.2,-,N/A,,Mostly Cloudy,0,2012-11-25 21:30:00
11:00 PM,53.6,50.0,88,29.95,6.2,ESE,1.2,-,N/A,,Mostly Cloudy,120,2012-11-25 22:00:00
11:30 PM,53.6,50.0,88,29.95,6.2,Calm,Calm,-,N/A,,Mostly Cloudy,0,2012-11-25 22:30:00